National Weather Service Raw Text Product

Displaying AFOS PIL: RWRWI Received: 2017-12-12 05:00 UTC


536 
ASUS43 KMKX 120459
RWRWI 

WISCONSIN REGIONAL WEATHER ROUNDUP
NATIONAL WEATHER SERVICE MILWAUKEE/SULLIVAN WI
1100 PM CST MON DEC 11 2017

NOTE: "FAIR" INDICATES FEW OR NO CLOUDS BELOW 12,000 FEET WITH NO
SIGNIFICANT WEATHER AND/OR OBSTRUCTIONS TO VISIBILITY.

WIZ001-002-006>008-014>016-023>028-120600-
NORTHWEST WISCONSIN
  
CITY           SKY/WX    TMP DP  RH WIND       PRES   REMARKS
SUPERIOR ARPT  PTCLDY    11   3  69 NW13      30.20R WCI  -4          
ASHLAND        CLOUDY    14   5  67 NW10      30.14R WCI   1          
HAYWARD        FLURRIES  15   7  70 VRB5      30.11R WCI   8          
SIREN          CLEAR     14   6  72 N9        30.18R WCI   1          
CUMBERLAND     PTCLDY    14   5  67 NW17      30.12R WCI  -3          
RICE LAKE      CLOUDY    16   8  70 NW5       30.15R WCI   9          
CHETEK         CLOUDY    16   8  71 NW7       30.13R WCI   6          
LADYSMITH      CLOUDY    16   7  68 NW16      30.10R WCI   0          
EAU CLAIRE     NOT AVBL                                               
MENOMONIE      PTCLDY    18   9  67 NW10      30.16R WCI   6          
NEW RICHMOND   CLEAR     15   6  68 NW7       30.18R WCI   5          
OSCEOLA        CLEAR     15   8  71 NW6       30.22R WCI   7          
$$
 
WIZ003>005-009-010-017-018-120600-
NORTH CENTRAL WISCONSIN
  
CITY           SKY/WX    TMP DP  RH WIND       PRES   REMARKS
MANITOWISH WTR LGT SNOW  13  10  89 NW13G18   29.97S WCI  -2          
ARBOR VITAE    CLOUDY    17  11  77 N12       29.96S WCI   4          
WOODRUFF       CLOUDY    17  11  77 N12       29.96S WCI   4          
RHINELANDER    FLURRIES  15   9  76 NW7G17    29.96R WCI   5          
EAGLE RIVER    CLOUDY    14   4  66 N16G22    29.94S WCI  -2          
LAND O LAKES   LGT SNOW  14  10  84 N9        29.96R WCI   1          
PHILLIPS       CLOUDY    13   6  74 NW9G18    30.02S WCI   1          
TOMAHAWK       CLOUDY    15   9  78 NW8G18    30.00R WCI   4          
MEDFORD        FLURRIES  15   7  71 NW15G22   30.01R WCI   0          
MERRILL        LGT SNOW  17  11  79 N9        30.00R WCI   5          
$$
 
WIZ029-030-035-036-043>047-120600-
CENTRAL WISCONSIN
  
CITY           SKY/WX    TMP DP  RH WIND       PRES   REMARKS
WAUSAU         CLOUDY    18   8  65 NW10      29.98R WCI   6          
MOSINEE        NOT AVBL                                               
MARSHFIELD     MOCLDY    17   7  64 N18G25    30.01R WCI   1          
STEVENS POINT  CLOUDY    18   6  60 NW13G18   30.00R WCI   5          
WAUPACA        CLOUDY    23   8  51 NW14G24   29.99R WCI  11          
WAUTOMA        FLURRIES  21  11  65 NW10      30.01R WCI  10          
WISC RAPIDS    PTCLDY    19   7  59 N14G23    30.03R WCI   6          
CAMP DOUGLAS   PTCLDY    20   8  60 NW13      30.04R WCI   7          
$$
 
WIZ011>013-019>022-031-037>040-048>050-120600-
NORTHEAST WISCONSIN
  
CITY           SKY/WX    TMP DP  RH WIND       PRES   REMARKS
ANTIGO         CLOUDY    15   8  72 N23       29.94R WCI  -3          
SHAWANO        PTCLDY    21   7  54 NW9G17    29.97R WCI  11          
OCONTO         MOCLDY    19   7  59 N14G21    29.94R WCI   6          
STURGEON BAY   CLOUDY    20   9  62 NW24G32   29.92R WCI   3          
GREEN BAY      MOCLDY    22  11  62 N15G32    29.95R WCI   9          
MANITOWOC      MOCLDY    22   9  57 N22G33    29.92R WCI   6          
APPLETON       MOCLDY    21   7  53 N18       29.93R WCI   6          
CLINTONVILLE   CLOUDY    21   9  58 NW15G22   29.97R WCI   8          
OSHKOSH        CLOUDY    23  10  57 NW16G29   29.95R WCI  10          
$$
 
WIZ032>034-041-042-053>061-120600-
SOUTHWEST WISCONSIN
  
CITY           SKY/WX    TMP DP  RH WIND       PRES   REMARKS
LA CROSSE      PTCLDY    20   9  62 NW16      30.12R WCI   6          
SPARTA         PTCLDY    21  12  67 NW8G22    30.09R WCI  11          
VIROQUA        PTCLDY    19  11  71 N14G23    30.04S WCI   6          
BOSCOBEL       PTCLDY    24  11  57 N13G24    30.08R WCI  12          
PRAIRIE DU CHI PTCLDY    26  13  58 NW17      30.09R WCI  13          
PLATTEVILLE    CLOUDY    28  19  69 NW21G28   30.01R WCI  14          
$$

WIZ056-057-062-063-064-067-068-120600-
SOUTH CENTRAL WISCONSIN
  
CITY           SKY/WX    TMP DP  RH WIND       PRES   REMARKS
REEDSBURG      PTCLDY    21   9  59 N14G20    30.03R WCI   8          
BARABOO/DELLS  FLURRIES  23  15  71 N13G20    30.01R WCI  11          
LONE ROCK      NOT AVBL                                               
MINERAL POINT  CLOUDY    28  19  69 NW14G23   30.00R WCI  17          
MADISON        PTCLDY    23  10  57 N18G35    29.98R WCI   9          
MIDDLETON      CLOUDY    26  16  64 N22G33    29.98R WCI  12          
WATERTOWN      CLOUDY    25  15  66 NW15G26   29.94R WCI  13          
MONROE         CLOUDY    30  18  59 N21G31    29.94R WCI  17          
JANESVILLE     CLOUDY    32  19  59 N22G28    29.93R WCI  19          
$$
 
WIZ051-052-058>065-066-070>072-120600-
SOUTHEAST WISCONSIN
  
CITY           SKY/WX    TMP DP  RH WIND       PRES   REMARKS
MILWAUKEE      FLURRIES  29  18  63 NW20G36   29.89R WCI  16          
WAUKESHA       CLOUDY    27  14  59 NW21G33   29.91R WCI  13          
MILWAUKEE/TIMM CLOUDY    28  14  54 N24G32    29.91R WCI  14          
RACINE         CLOUDY    30  19  63 NW18G37   29.89R WCI  18          
BURLINGTON     CLOUDY    41  35  81 NW22      29.89R                  
KENOSHA        CLOUDY    31  20  63 NW14G25   29.88R WCI  21          
FOND DU LAC    MOCLDY    23  10  57 N22G30    29.95R WCI   8          
SHEBOYGAN      CLOUDY    23  13  65 N17       29.91R WCI   9          
WEST BEND      CLOUDY    25  14  63 NW18G31   29.91R WCI  11          
JUNEAU         PTCLDY    22  10  61 NW14G28   29.95R WCI   9          
$$

LSZ147-162-120600-
LAKE SUPERIOR
  
STATION/POSITION TIME  TEMP    WIND        PRES    WAVE
                       AIR SEA DIR/SP/G            HT/PER
                 (UTC) (F)     (DEG/KT/KT) (MB)    (FT/S)
DEVILS ISLAND    0400   15     330/ 28/ 31 1021.5R
SAXON HARBOR     0440   19                 1019.6R
$$
 
LMZ867-665-643>646-120600-
LAKE MICHIGAN
  
STATION/POSITION TIME  TEMP    WIND        PRES    WAVE
                       AIR SEA DIR/SP/G            HT/PER
                 (UTC) (F)     (DEG/KT/KT) (MB)    (FT/S)
NORTHPORT PIER   0440   22     310/ 30/ 38 1012.2R
KEWAUNEE LAKESHO 0430   22     330/ 12/ 18 1012.0R
SHEBOYGAN LAKESH 0400   26     330/ 27/ 37 1012.7R
PORT WASHINGTON  0430   27     330/ 12/ 26 1013.5R
MILWAUKEE LAKESH 0430   30     330/ 15/ 19   N/A
KENOSHA   LAKESH 0400   31     320/ 12/ 22 1011.5
$$

TC  - TEMPERATURE IN CELSIUS
VSB - VISIBILITY IN STATUTE MILES
WCI - WIND CHILL INDEX
HX  - HEAT INDEX